SBIRS GEO-4 (USA 282)

Last updated on Sun Oct 27 2019 04:21:41 GMT+0000 (Coordinated Universal Time)

1 43162U 18009A 19299.41674147 -.00000314 00000-0 00000+0 0 9996 2 43162 5.4043 317.7894 0002169 251.3002 114.4516 1.00270949 6510

Satellite not in orbit

SBIRS GEO-4 (USA 282)